Location: Possagno
(45.8500°N, 11.8667°E)
Time: 18:38:17
(UTC+00:00)

Cosmos 1455 - Pass Details

Date: 07 June 2020
Orbit: 499 x 523 km, 82.5° (Epoch: 01 July)

Event Time Altitude Azimuth Distance (km) Brightness Sun altitude
Rises 00:55:01 0° 333° (NNW) 2,601 6.3 -17.5°
Reaches altitude 10° 00:57:51 10° 310° (NW) 1,712 5.0 -17.2°
Maximum altitude 01:00:01 15° 274° (W) 1,424 4.2 -17.1°
Enters shadow 01:00:12 15° 270° (W) 1,426 4.2 -17.1°
